Flag for Uruguay Weather past 2 weeks in Minas, Uruguay

Now
70 °F

Clear.


Feels Like: 70 °F
Forecast: 62 / 79 °F
Wind: 13 mph from North

Location: Capitan Corbeta

Current Time: May 22, 2015 at 5:47:49 AM

Latest Report: May 22, 2015 at 4:00 AM


Visibility: 10 mi

Pressure: 29.95 "Hg

Humidity: 78%

Dew point: 63 °F

Location of MinasLocation

Historic Weather in Minas — Graph

°F

Minas temperature yesterday

Maximum temperature yesterday: 82 °F (at 2:00 PM)
Minimum temperature yesterday: 59 °F (at 7:00 AM)
Average temperature yesterday: 69 °F

Past Weeks' High & Low Weather Summary

 TemperatureHumidityPressure
High82 °F (May 21, 2:00 PM)100% (May 15, 6:00 AM)30.30 "Hg (May 15, 6:00 AM)
Low39 °F (May 8, 1:00 AM)37% (May 8, 1:00 PM)29.95 "Hg (May 21, 4:00 PM)
Average61 °F79%30.14 "Hg
* Reported May 7 4:00 AM — May 22 4:00 AM, Minas, Weather by CustomWeather, © 2015

Note: Actual official high and low records may vary slightly from our data, if they occured in-between our weather recording intervals... More about our weather records

Advertising

Minas weather history for previous 24 hours

 ConditionsComfort  
Time TempWeatherWind HumidityBarometerVisibility
4:00 AM
Fri, May 22
70 °FClear.13 mph78%29.95 "Hg10 mi
3:00 AM63 °FClear.5 mph83%29.98 "Hg10 mi
2:00 AM63 °FClear.6 mph83%29.98 "Hg10 mi
1:00 AM63 °FClear.6 mph83%30.01 "Hg10 mi
12:00 AM63 °FClear.6 mph77%29.98 "Hg10 mi
11:00 PM
Thu, May 21
64 °FClear.6 mph78%29.98 "Hg10 mi
10:00 PM64 °FClear.7 mph73%29.98 "Hg10 mi
9:00 PM66 °FClear.5 mph73%29.98 "Hg10 mi
8:00 PM68 °FClear.6 mph69%29.98 "Hg10 mi
7:00 PM68 °FClear.No wind69%29.98 "Hg10 mi
6:00 PM73 °FClear.5 mph53%29.95 "Hg10 mi
5:00 PM79 °FClear.12 mph45%29.95 "Hg10 mi
4:00 PM81 °FSunny.12 mph42%29.95 "Hg10 mi
3:00 PM81 °FSunny.17 mph42%29.98 "Hg10 mi
2:00 PM82 °FOvercast.17 mph42%29.98 "HgN/A
1:00 PM81 °FSunny.18 mph48%30.01 "Hg10 mi
12:00 PM79 °FSunny.17 mph51%30.04 "Hg10 mi
11:00 AM75 °FSunny.12 mph65%30.07 "Hg10 mi
10:00 AM66 °FSunny.6 mph88%30.04 "Hg10 mi
9:00 AM63 °FSunny.7 mph88%30.04 "Hg10 mi
8:00 AM59 °FClear.7 mph94%30.04 "Hg6 mi
7:00 AM59 °FFog.5 mph94%30.04 "HgN/A
6:00 AM61 °FClear.5 mph88%30.01 "Hg10 mi
5:00 AM61 °FClear.8 mph88%30.04 "Hg10 mi
Weather by CustomWeather, © 2015

See weather overviewHow to use our weather pages